Home > Weather > Chatham-Kent > Past weeks

Flag for Canada Weather for the Past 2 Weeks in Chatham-Kent, Ontario, Canada

Now
35 °F

Chilly.


Feels Like: 26 °F
Forecast: 28 / 35 °F
Wind: 14 mph from South

Location: Erieau

Current Time: Feb 5, 2016 at 10:37:39 PM

Latest Report: Feb 5, 2016 at 10:00 PM


Visibility: N/A

Pressure: 30.29 "Hg

Humidity: 73%

Dew point: 27 °F

Location of Chatham-KentLocation

Historic Weather in Chatham-Kent — Graph

°F

Chatham-Kent Temperature Yesterday

Maximum temperature yesterday: 36 °F (at 12:00 AM)
Minimum temperature yesterday: 29 °F (at 11:00 PM)
Average temperature yesterday: 33 °F

High & Low Weather Summary for the Past Weeks

 TemperatureHumidityPressure
High44 °F (Feb 3, 4:00 PM)98% (Jan 24, 2:00 AM)30.39 "Hg (Jan 24, 2:00 AM)
Low18 °F (Jan 23, 8:00 AM)55% (Jan 23, 4:00 PM)29.50 "Hg (Feb 3, 6:00 AM)
Average32 °F80%29.96 "Hg
* Reported Jan 21 9:00 PM — Feb 5 9:00 PM, Chatham-Kent, Weather by CustomWeather, © 2016

Note: Actual official high and low records may vary slightly from our data, if they occured in-between our weather recording intervals... More about our weather records

Advertising

Chatham-Kent Weather History for the Previous 24 Hours

 ConditionsComfort  
Time TempWeatherWind HumidityBarometerVisibility
9:00 PM
Fri, Feb 5
35 °FChilly.12 mph77%30.31 "HgN/A
8:00 PM34 °FChilly.10 mph76%30.32 "HgN/A
7:00 PM33 °FChilly.9 mph77%30.34 "HgN/A
6:00 PM31 °FChilly.9 mph79%30.34 "HgN/A
5:00 PM32 °FChilly.12 mph76%30.34 "HgN/A
4:00 PM32 °FChilly.13 mph74%30.34 "HgN/A
3:00 PM31 °FChilly.14 mph73%30.34 "HgN/A
2:00 PM31 °FChilly.14 mph75%30.35 "HgN/A
1:00 PM30 °FChilly.15 mph83%30.36 "HgN/A
12:00 PM29 °FChilly.14 mph68%30.38 "HgN/A
11:00 AM29 °FChilly.5 mph72%30.39 "HgN/A
10:00 AM29 °FChilly.5 mph69%30.38 "HgN/A
9:00 AM26 °FChilly.3 mph72%30.37 "HgN/A
8:00 AM24 °FCold.6 mph77%30.37 "HgN/A
7:00 AM23 °FCold.5 mph79%30.35 "HgN/A
6:00 AM23 °FCold.7 mph78%30.34 "HgN/A
5:00 AM24 °FCold.6 mph77%30.32 "HgN/A
4:00 AM25 °FChilly.7 mph74%30.31 "HgN/A
3:00 AM27 °FChilly.9 mph72%30.30 "HgN/A
2:00 AM28 °FChilly.6 mph79%30.28 "HgN/A
1:00 AM28 °FChilly.7 mph88%30.26 "HgN/A
12:00 AM28 °FChilly.6 mph88%30.26 "HgN/A
11:00 PM
Thu, Feb 4
29 °FChilly.7 mph91%30.25 "HgN/A
10:00 PM31 °FChilly.12 mph87%30.23 "HgN/A
Weather by CustomWeather, © 2016

See weather overviewHow to use our weather pages